Regional Weather Roundup
Issued by NWS Charleston, SC

Current Version | Previous Version | Graphics & Text | Print | Product List | Glossary On
Versions: 1 2 3 4 5 6 7 8 9 10 11 12 13 14 15 16 17 18 19 20 21 22 23 24 25 26 27 28 29 30 31 32 33 34 35 36 37 38 39 40 41 42 43 44 45 46 47 48 49 50
000
ASUS42 KCHS 240628
RWRCHS

REGIONAL WEATHER ROUNDUP
NATIONAL WEATHER SERVICE CHARLESTON SC
200 AM EDT TUE MAY 24 2016

NOTE: "FAIR" INDICATES FEW OR NO CLOUDS BELOW 12,000 FEET WITH NO
SIGNIFICANT WEATHER AND/OR OBSTRUCTIONS TO VISIBILITY.

NOT ALL STATIONS ARE QUALITY CONTROLLED. USE DATA WITH CAUTION...
ESPECIALLY DEWPOINT OBSERVATIONS.

SCZ027-030-031-034>040-042>050-240700-
...SOUTHEAST SOUTH CAROLINA...

CITY           SKY/WX    TMP DP  RH WIND       PRES   REMARKS
N CHARLESTON   PTCLDY    63  53  70 CALM      30.07S
6HR MIN TEMP:  62; 6HR MAX TEMP:  73;

WATERFRONT PRK   N/A     67  58  72 NE6       30.06R
MOUNT PLEASANT FAIR      57  55  94 CALM      30.07F
JOHNS ISLAND   MOCLDY    61  57  88 CALM      30.07S
PINOPOLIS        N/A     68  55  64 VRB3      29.99S
MONCKS CORNER  MOCLDY    52  48  87 CALM      30.07S
SUMMERVILLE    MOCLDY    57  57 100 CALM      30.08S
BEAUFORT MCAS  CLEAR     67  58  72 NE5       30.06S
6HR MIN TEMP:  66; 6HR MAX TEMP:  73;

BEAUFORT ARPT  FAIR      68  59  73 NE5       30.05F
HILTON HEAD IS CLEAR     64  61  88 E3        30.06S
WALTERBORO     MOCLDY    61  59  94 NE3       30.07F
ALLENDALE      FAIR      63  55  77 CALM      30.06S

...SOUTHERN MIDLANDS AND PEE DEE...

CITY           SKY/WX    TMP DP  RH WIND       PRES   REMARKS
GEORGETOWN     FAIR      52  50  93 CALM      30.07F
KINGSTREE      FAIR      54  50  87 CALM      30.07S
ORANGEBURG     MOCLDY    59  56  89 CALM      30.07S
6HR MIN TEMP:  57; 6HR MAX TEMP:  73;

BARNWELL       MOCLDY    64  59  82 CALM      30.07S
AIKEN          MOCLDY    63  52  67 E5        30.10S
MANNING        FAIR      52  52 100 CALM      30.07S
COLUMBIA       MOCLDY    62  55  77 CALM      30.06S
6HR MIN TEMP:  61; 6HR MAX TEMP:  75;

SUMTER         MOCLDY    58  53  84 E2        30.04F
6HR MIN TEMP:  57; 6HR MAX TEMP:  69;

FLORENCE       CLEAR     55  53  93 CALM      30.07S
6HR MIN TEMP:  54; 6HR MAX TEMP:  69;

MYRTLE BEACH   CLEAR     57  48  72 CALM      30.07F
N MYRTLE BEACH CLEAR     55  53  93 CALM      30.05S
6HR MIN TEMP:  55; 6HR MAX TEMP:  66;


$$

GAZ063-065-086>088-099>101-113>116-118-119-134>141-150-240700-
...SOUTHEAST GEORGIA...

CITY           SKY/WX    TMP DP  RH WIND       PRES   REMARKS
SAVANNAH ARPT  CLEAR     65  59  81 CALM      30.06S
6HR MIN TEMP:  64; 6HR MAX TEMP:  77;

HUNTER AAF     NOT AVBL
FORT STEWART   CLEAR     60  58  91 CALM      30.02F
6HR MIN TEMP:  60; 6HR MAX TEMP:  74;

STATESBORO     CLEAR     60  58  93 CALM      30.05S
SYLVANIA       CLEAR     64  57  77 CALM      30.06F
CLAXTON        FAIR      58  58  99 CALM      30.05S

...CSRA...CENTRAL AND FAR SOUTHEAST GEORGIA...

CITY           SKY/WX    TMP DP  RH WIND       PRES   REMARKS
THOMSON        CLEAR     58  57  99 CALM      30.10S
AUGUSTA-BUSH   MOCLDY    59  56  89 CALM      30.05S
6HR MIN TEMP:  57; 6HR MAX TEMP:  73;

AUGUSTA-DANIEL PTCLDY    67  53  61 E5        30.06S
SWAINSBORO     FAIR      64  54  68 E6        30.06R
VIDALIA        CLEAR     64  57  77 CALM      30.04S
EASTMAN        FAIR      60  60 100 CALM      30.06R FOG
HAZLEHURST     FAIR      67  56  68 CALM      30.03S
ALMA           CLEAR     57  56  96 E3        30.03F
6HR MIN TEMP:  57; 6HR MAX TEMP:  74;

WAYCROSS       CLEAR     66  57  72 S5        30.04S
JESUP          FAIR      54  54 100 CALM      30.04F
BAXLEY         FAIR      59  59 100 CALM      30.04S
BRUNSWICK      CLEAR     64  63  94 CALM      30.04F FOG
SAINT SIMONS   CLEAR     74  59  59 S6        30.04F
6HR MIN TEMP:  73; 6HR MAX TEMP:  76;


$$

SCZ027-028-034-036>038-045-046-048>050-GAZ119-141-240700-
...LAKE AND SUPPLEMENTAL COASTAL OBSERVATIONS...

STATION/POSITION TIME  TEMP    WIND        PRES    WAVE   SWELL
                       AIR SEA DIR/SP/G            HT/PER HT/PER/DIR
                 (UTC) (F)     (DEG/KT/KT) (MB)    (FT/S) (FT/S/D)
WINYAH BAY       0500   62     360/  3     1017.0S
LAKE MURRAY      0500   66      80/  6/  8 1017.6S
ACE BASIN NERRS  0500   63        CALM     1018.0S
FORT PULASKI     0600   70 76  120/  2/  2 1017.9F
SAPELO ISLAND    0600   67     140/  4     1017.0F

$$

ANZ835-935-AMZ111-154-330-350-352-354-370-450-454-472-240700-
...C-MAN AND BUOY OBSERVATIONS...

STATION/POSITION TIME  TEMP    WIND        PRES    WAVE   SWELL
                       AIR SEA DIR/SP/G            HT/PER HT/PER/DIR
                 (UTC) (F)     (DEG/KT/KT) (MB)    (FT/S) (FT/S/D)
BUOY 41004       0550   71 75   10/  8/ 10 1017.7R   3/ 9   2/ 9
BUOY 41008       0550   76 76  130/  6/  8 1017.4F   2/ 9   2/110/ 9
FOLLY BEACH CMAN 0600   69      40/  7/  9 1018.2F
CAPERS NEARSHORE 0608   69 74   40/  6/  8 1017.8S
FRIPP NEARSHORE  0608   73 75   80/ 10/ 12 1017.1F


STATION/POSITION TIME  TEMP    WIND        PRES    WAVE   SWELL
                       AIR SEA DIR/SP/G            HT/PER HT/PER/DIR
                 (UTC) (F)     (DEG/KT/KT) (MB)    (FT/S) (FT/S/D)
5E ST. MARYS GA  0521      77                N/A     2/ 9
FRYING PAN BUOY  0600   67 76  350/ 12/ 14 1017.0R
BUOY 41025       0550   63 67  300/ 14/ 17 1015.0F   4/ 8   3/ 70/ 8
CAPE LOOKOUT NC  0600   62     310/  9/ 11 1015.9F
BUOY 41002       0550   73 77  260/ 12/ 16 1016.2F   4/ 6   3/ 20/ 6
BUOY 41010       0520   77 78   40/  8/  8 1017.2S
ST AUGUSTINE FL  0600   72 79  230/  3/  4 1018.0F


$$



USA.gov is the U.S. government's official web portal to all federal, state and local government web resources and services.